| time (UTC) | temp F | wind direction | speed MPH | gust MPH | rain 1hr in | rain 24hr in | rain mn in | humidity % | barometer mb |
| 20260902032004 | 85 | 360 | 0.0 | 3.0 | 0.00 | 0.00 | 0.00 | 54 | 1015.3 |
| 20260902031535 | 85 | 360 | 0.0 | 3.0 | 0.00 | 0.00 | 0.00 | 54 | 1015.1 |
| 20260902031008 | 85 | 360 | 0.0 | 3.0 | 0.00 | 0.00 | 0.00 | 53 | 1015.0 |
| 20260902030505 | 85 | 360 | 0.0 | 2.0 | 0.00 | 0.00 | 0.00 | 53 | 1014.8 |
| 20260902030024 | 85 | 360 | 0.0 | 2.0 | 0.00 | 0.00 | 0.00 | 53 | 1014.7 |
| 20260902025512 | 85 | 360 | 0.0 | 2.0 | 0.00 | 0.00 | 0.00 | 53 | 1014.6 |
| 20260902025004 | 85 | 360 | 0.0 | 1.0 | 0.00 | 0.00 | 0.00 | 53 | 1014.5 |
| 20260902024526 | 85 | 360 | 0.0 | 0.0 | 0.00 | 0.00 | 0.00 | 52 | 1014.5 |
| 20260902024005 | 86 | 360 | 0.0 | 0.0 | 0.00 | 0.00 | 0.00 | 52 | 1014.4 |
| 20260902023504 | 86 | 360 | 0.0 | 1.0 | 0.00 | 0.00 | 0.00 | 52 | 1014.3 |
| 20260902023023 | 86 | 360 | 0.0 | 1.0 | 0.00 | 0.00 | 0.00 | 52 | 1014.3 |
| 20260902022507 | 87 | 360 | 0.0 | 1.0 | 0.00 | 0.00 | 0.00 | 51 | 1014.3 |
| 20260902022003 | 87 | 360 | 0.0 | 2.0 | 0.00 | 0.00 | 0.00 | 50 | 1014.2 |
| 20260902021528 | 87 | 360 | 0.0 | 3.0 | 0.00 | 0.00 | 0.00 | 50 | 1014.2 |
| 20260902021008 | 87 | 360 | 0.0 | 3.0 | 0.00 | 0.00 | 0.00 | 50 | 1014.2 |
| 20260902020504 | 88 | 360 | 1.0 | 4.0 | 0.00 | 0.00 | 0.00 | 49 | 1014.0 |
| 20260902020030 | 88 | 360 | 0.0 | 4.0 | 0.00 | 0.00 | 0.00 | 48 | 1014.0 |
| 20260902015508 | 88 | 360 | 0.0 | 4.0 | 0.00 | 0.00 | 0.00 | 47 | 1014.0 |
| 20260902015014 | 89 | 39 | 0.0 | 6.0 | 0.00 | 0.00 | 0.00 | 46 | 1013.9 |
| 20260902014527 | 89 | 360 | 0.0 | 6.0 | 0.00 | 0.00 | 0.00 | 45 | 1013.8 |
| 20260902014007 | 89 | 23 | 1.0 | 4.0 | 0.00 | 0.00 | 0.00 | 44 | 1013.8 |
| 20260902013504 | 90 | 9 | 0.0 | 5.0 | 0.00 | 0.00 | 0.00 | 43 | 1013.8 |
| 20260902013035 | 90 | 269 | 1.0 | 5.0 | 0.00 | 0.00 | 0.00 | 42 | 1013.8 |
| 20260902012515 | 90 | 271 | 2.0 | 8.0 | 0.00 | 0.00 | 0.00 | 42 | 1013.8 |
| 20260902012021 | 90 | 266 | 4.0 | 8.0 | 0.00 | 0.00 | 0.00 | 40 | 1013.8 |
| 20260902011526 | 91 | 274 | 2.0 | 8.0 | 0.00 | 0.00 | 0.00 | 40 | 1013.8 |
| 20260902011008 | 91 | 257 | 3.0 | 9.0 | 0.00 | 0.00 | 0.00 | 41 | 1013.7 |
| 20260902010505 | 91 | 283 | 4.0 | 9.0 | 0.00 | 0.00 | 0.00 | 40 | 1013.7 |
| 20260902010023 | 91 | 261 | 3.0 | 7.0 | 0.00 | 0.00 | 0.00 | 41 | 1013.6 |
| 20260902005520 | 92 | 253 | 4.0 | 10.0 | 0.00 | 0.00 | 0.00 | 40 | 1013.6 |
| 20260902005016 | 92 | 284 | 4.0 | 10.0 | 0.00 | 0.00 | 0.00 | 39 | 1013.7 |
| 20260902004524 | 92 | 213 | 3.0 | 6.0 | 0.00 | 0.00 | 0.00 | 39 | 1013.7 |
| 20260902004009 | 92 | 227 | 2.0 | 9.0 | 0.00 | 0.00 | 0.00 | 39 | 1013.7 |
| 20260902003503 | 92 | 271 | 4.0 | 9.0 | 0.00 | 0.00 | 0.00 | 39 | 1013.8 |
| 20260902003035 | 93 | 282 | 3.0 | 9.0 | 0.00 | 0.00 | 0.00 | 41 | 1013.8 |
| 20260902002507 | 92 | 257 | 2.0 | 9.0 | 0.00 | 0.00 | 0.00 | 40 | 1013.8 |
| 20260902002019 | 93 | 264 | 3.0 | 8.0 | 0.00 | 0.00 | 0.00 | 38 | 1013.8 |
| 20260902001524 | 93 | 297 | 2.0 | 8.0 | 0.00 | 0.00 | 0.00 | 39 | 1013.8 |
| 20260902001008 | 93 | 257 | 3.0 | 7.0 | 0.00 | 0.00 | 0.00 | 39 | 1013.9 |
| 20260902000515 | 94 | 260 | 1.0 | 8.0 | 0.00 | 0.00 | 0.00 | 40 | 1013.9 |
| 20260902000033 | 93 | 299 | 3.0 | 9.0 | 0.00 | 0.00 | 0.00 | 39 | 1014.0 |
| 20260901235518 | 93 | 312 | 3.0 | 9.0 | 0.00 | 0.00 | 0.00 | 38 | 1014.0 |
| 20260901235015 | 93 | 269 | 4.0 | 9.0 | 0.00 | 0.00 | 0.00 | 37 | 1014.0 |
| 20260901234526 | 93 | 250 | 2.0 | 7.0 | 0.00 | 0.00 | 0.00 | 40 | 1014.2 |
| 20260901234006 | 93 | 245 | 2.0 | 8.0 | 0.00 | 0.00 | 0.00 | 38 | 1014.2 |
| 20260901233503 | 94 | 318 | 3.0 | 8.0 | 0.00 | 0.00 | 0.00 | 36 | 1014.2 |
| 20260901233031 | 94 | 262 | 1.0 | 7.0 | 0.00 | 0.00 | 0.00 | 39 | 1014.3 |
| 20260901232519 | 93 | 273 | 4.0 | 9.0 | 0.00 | 0.00 | 0.00 | 38 | 1014.3 |
| 20260901232006 | 93 | 275 | 3.0 | 9.0 | 0.00 | 0.00 | 0.00 | 38 | 1014.3 |
| 20260901231527 | 94 | 294 | 3.0 | 7.0 | 0.00 | 0.00 | 0.00 | 39 | 1014.3 |
| 20260901231019 | 94 | 257 | 2.0 | 8.0 | 0.00 | 0.00 | 0.00 | 38 | 1014.4 |
| 20260901230504 | 94 | 301 | 3.0 | 8.0 | 0.00 | 0.00 | 0.00 | 39 | 1014.4 |
| 20260901230033 | 94 | 264 | 2.0 | 8.0 | 0.00 | 0.00 | 0.00 | 37 | 1014.4 |
| 20260901225518 | 94 | 266 | 1.0 | 8.0 | 0.00 | 0.00 | 0.00 | 38 | 1014.5 |
| 20260901225017 | 94 | 259 | 2.0 | 8.0 | 0.00 | 0.00 | 0.00 | 39 | 1014.5 |
| 20260901224534 | 94 | 229 | 2.0 | 8.0 | 0.00 | 0.00 | 0.00 | 40 | 1014.5 |
| 20260901224007 | 93 | 241 | 1.0 | 8.0 | 0.00 | 0.00 | 0.00 | 39 | 1014.7 |
| 20260901223517 | 93 | 252 | 3.0 | 8.0 | 0.00 | 0.00 | 0.00 | 39 | 1014.8 |
| 20260901223036 | 93 | 242 | 2.0 | 8.0 | 0.00 | 0.00 | 0.00 | 39 | 1014.8 |
| 20260901222506 | 94 | 306 | 1.0 | 7.0 | 0.00 | 0.00 | 0.00 | 40 | 1014.8 |
| 20260901222015 | 94 | 290 | 1.0 | 7.0 | 0.00 | 0.00 | 0.00 | 40 | 1014.9 |
| 20260901221526 | 93 | 263 | 2.0 | 8.0 | 0.00 | 0.00 | 0.00 | 40 | 1015.0 |
| 20260901221007 | 94 | 254 | 2.0 | 7.0 | 0.00 | 0.00 | 0.00 | 40 | 1015.0 |
| 20260901220518 | 94 | 290 | 1.0 | 7.0 | 0.00 | 0.00 | 0.00 | 40 | 1014.9 |
| 20260901220033 | 94 | 257 | 1.0 | 6.0 | 0.00 | 0.00 | 0.00 | 39 | 1015.0 |
| 20260901215508 | 95 | 275 | 2.0 | 8.0 | 0.00 | 0.00 | 0.00 | 41 | 1015.1 |
| 20260901215016 | 94 | 252 | 2.0 | 8.0 | 0.00 | 0.00 | 0.00 | 41 | 1015.2 |
| 20260901214525 | 94 | 279 | 1.0 | 6.0 | 0.00 | 0.00 | 0.00 | 41 | 1015.2 |
| 20260901214005 | 93 | 307 | 2.0 | 7.0 | 0.00 | 0.00 | 0.00 | 41 | 1015.3 |
| 20260901213519 | 93 | 248 | 2.0 | 7.0 | 0.00 | 0.00 | 0.00 | 41 | 1015.4 |
| 20260901213027 | 93 | 278 | 2.0 | 7.0 | 0.00 | 0.00 | 0.00 | 40 | 1015.4 |
| 20260901212516 | 93 | 198 | 0.0 | 8.0 | 0.00 | 0.00 | 0.00 | 40 | 1015.5 |
| 20260901212019 | 93 | 281 | 2.0 | 8.0 | 0.00 | 0.00 | 0.00 | 41 | 1015.6 |
| 20260901211526 | 93 | 286 | 3.0 | 6.0 | 0.00 | 0.00 | 0.00 | 42 | 1015.7 |
| 20260901211009 | 93 | 297 | 3.0 | 6.0 | 0.00 | 0.00 | 0.00 | 39 | 1015.7 |
| 20260901210518 | 93 | 277 | 2.0 | 5.0 | 0.00 | 0.00 | 0.00 | 41 | 1015.8 |
| 20260901210022 | 93 | 261 | 1.0 | 7.0 | 0.00 | 0.00 | 0.00 | 39 | 1015.9 |
| 20260901205508 | 93 | 209 | 2.0 | 7.0 | 0.00 | 0.01 | 0.00 | 40 | 1016.1 |
| 20260901205016 | 93 | 283 | 0.0 | 4.0 | 0.00 | 0.01 | 0.00 | 39 | 1016.1 |
| 20260901204523 | 92 | 288 | 0.0 | 5.0 | 0.00 | 0.01 | 0.00 | 40 | 1016.2 |
| 20260901204006 | 92 | 285 | 1.0 | 6.0 | 0.00 | 0.01 | 0.00 | 40 | 1016.3 |
| 20260901203517 | 92 | 259 | 2.0 | 6.0 | 0.00 | 0.02 | 0.00 | 41 | 1016.3 |
| 20260901203041 | 92 | 219 | 1.0 | 6.0 | 0.00 | 0.02 | 0.00 | 40 | 1016.4 |
| 20260901202519 | 93 | 245 | 1.0 | 6.0 | 0.00 | 0.03 | 0.00 | 43 | 1016.4 |
| 20260901202016 | 92 | 272 | 1.0 | 6.0 | 0.00 | 0.04 | 0.00 | 41 | 1016.5 |
| 20260901201533 | 92 | 265 | 2.0 | 6.0 | 0.00 | 0.05 | 0.00 | 41 | 1016.5 |
| 20260901201019 | 92 | 277 | 1.0 | 5.0 | 0.00 | 0.05 | 0.00 | 42 | 1016.6 |
| 20260901200516 | 91 | 271 | 1.0 | 7.0 | 0.00 | 0.05 | 0.00 | 45 | 1016.6 |
| 20260901200027 | 91 | 270 | 3.0 | 7.0 | 0.00 | 0.06 | 0.00 | 41 | 1016.7 |
| 20260901195508 | 91 | 283 | 3.0 | 6.0 | 0.00 | 0.06 | 0.00 | 42 | 1016.8 |
| 20260901195022 | 91 | 287 | 2.0 | 6.0 | 0.00 | 0.08 | 0.00 | 43 | 1016.7 |
| 20260901194523 | 91 | 236 | 1.0 | 8.0 | 0.00 | 0.10 | 0.00 | 43 | 1016.8 |
| 20260901194007 | 90 | 232 | 3.0 | 7.0 | 0.00 | 0.11 | 0.00 | 46 | 1016.9 |
| 20260901193519 | 90 | 251 | 0.0 | 7.0 | 0.00 | 0.11 | 0.00 | 43 | 1017.0 |
| 20260901193035 | 89 | 222 | 0.0 | 6.0 | 0.00 | 0.12 | 0.00 | 43 | 1017.1 |
| 20260901192503 | 89 | 223 | 1.0 | 6.0 | 0.00 | 0.13 | 0.00 | 44 | 1017.2 |
| 20260901192019 | 90 | 243 | 0.0 | 5.0 | 0.00 | 0.14 | 0.00 | 44 | 1017.2 |
| 20260901191540 | 90 | 268 | 1.0 | 8.0 | 0.00 | 0.15 | 0.00 | 43 | 1017.3 |
| 20260901191007 | 90 | 275 | 0.0 | 8.0 | 0.00 | 0.15 | 0.00 | 48 | 1017.3 |
| 20260901190516 | 90 | 243 | 0.0 | 5.0 | 0.00 | 0.16 | 0.00 | 45 | 1017.4 |
| 20260901190049 | 89 | 182 | 0.0 | 5.0 | 0.00 | 0.16 | 0.00 | 45 | 1017.4 |
| 20260901185508 | 89 | 239 | 1.0 | 5.0 | 0.00 | 0.18 | 0.00 | 44 | 1017.5 |
| 20260901185015 | 89 | 257 | 1.0 | 5.0 | 0.00 | 0.18 | 0.00 | 48 | 1017.5 |
| 20260901184530 | 89 | 192 | 1.0 | 4.0 | 0.00 | 0.19 | 0.00 | 46 | 1017.5 |
| 20260901184021 | 89 | 147 | 0.0 | 6.0 | 0.00 | 0.20 | 0.00 | 46 | 1017.5 |
| 20260901183519 | 89 | 72 | 1.0 | 6.0 | 0.00 | 0.20 | 0.00 | 46 | 1017.6 |
| 20260901183024 | 88 | 90 | 1.0 | 5.0 | 0.00 | 0.21 | 0.00 | 47 | 1017.6 |
| 20260901182507 | 88 | 154 | 1.0 | 5.0 | 0.00 | 0.23 | 0.00 | 46 | 1017.7 |
| 20260901182003 | 88 | 157 | 0.0 | 8.0 | 0.00 | 0.26 | 0.00 | 46 | 1017.7 |
| 20260901181529 | 88 | 170 | 2.0 | 8.0 | 0.00 | 0.28 | 0.00 | 48 | 1017.7 |
| 20260901181003 | 88 | 173 | 0.0 | 4.0 | 0.00 | 0.29 | 0.00 | 49 | 1017.7 |
| 20260901180504 | 88 | 146 | 0.0 | 4.0 | 0.00 | 0.34 | 0.00 | 46 | 1017.8 |
| 20260901180028 | 88 | 135 | 1.0 | 4.0 | 0.00 | 0.34 | 0.00 | 46 | 1017.9 |
| 20260901175512 | 87 | 176 | 1.0 | 4.0 | 0.00 | 0.34 | 0.00 | 49 | 1018.0 |
| 20260901175012 | 87 | 254 | 0.0 | 4.0 | 0.00 | 0.35 | 0.00 | 50 | 1018.0 |
| 20260901174540 | 86 | 255 | 1.0 | 4.0 | 0.00 | 0.35 | 0.00 | 49 | 1018.0 |
| 20260901174005 | 86 | 164 | 0.0 | 4.0 | 0.00 | 0.35 | 0.00 | 49 | 1018.0 |
| 20260901173519 | 86 | 152 | 1.0 | 3.0 | 0.00 | 0.38 | 0.00 | 50 | 1018.0 |
| 20260901173036 | 86 | 151 | 0.0 | 4.0 | 0.00 | 0.44 | 0.00 | 50 | 1017.9 |
| 20260901172520 | 86 | 167 | 1.0 | 4.0 | 0.00 | 0.46 | 0.00 | 49 | 1018.0 |
| 20260901172016 | 85 | 169 | 0.0 | 5.0 | 0.00 | 0.49 | 0.00 | 53 | 1018.0 |
| 20260901171542 | 85 | 167 | 1.0 | 4.0 | 0.00 | 0.51 | 0.00 | 53 | 1018.0 |
| 20260901171014 | 85 | 145 | 0.0 | 2.0 | 0.00 | 0.52 | 0.00 | 56 | 1018.0 |
| 20260901170514 | 84 | 144 | 0.0 | 4.0 | 0.00 | 0.52 | 0.00 | 55 | 1018.0 |
| 20260901170024 | 84 | 140 | 1.0 | 5.0 | 0.00 | 0.52 | 0.00 | 57 | 1018.0 |
| 20260901165520 | 84 | 124 | 0.0 | 5.0 | 0.00 | 0.52 | 0.00 | 55 | 1018.1 |
| 20260901165021 | 84 | 107 | 2.0 | 5.0 | 0.00 | 0.52 | 0.00 | 57 | 1018.0 |
| 20260901164523 | 83 | 145 | 0.0 | 3.0 | 0.00 | 0.52 | 0.00 | 58 | 1018.0 |
| 20260901164017 | 83 | 146 | 1.0 | 4.0 | 0.00 | 0.52 | 0.00 | 58 | 1018.0 |
| 20260901163520 | 83 | 146 | 1.0 | 4.0 | 0.00 | 0.52 | 0.00 | 59 | 1018.0 |
| 20260901163035 | 83 | 149 | 0.0 | 3.0 | 0.00 | 0.52 | 0.00 | 61 | 1017.9 |
| 20260901162505 | 82 | 150 | 0.0 | 4.0 | 0.00 | 0.52 | 0.00 | 62 | 1017.9 |
| 20260901162019 | 82 | 154 | 0.0 | 4.0 | 0.00 | 0.52 | 0.00 | 63 | 1018.0 |
| 20260901161540 | 82 | 155 | 1.0 | 4.0 | 0.00 | 0.52 | 0.00 | 63 | 1018.0 |
| 20260901161019 | 81 | 129 | 1.0 | 4.0 | 0.00 | 0.52 | 0.00 | 62 | 1018.0 |
| 20260901160517 | 81 | 120 | 1.0 | 4.0 | 0.00 | 0.52 | 0.00 | 64 | 1018.0 |
| 20260901160035 | 81 | 113 | 0.0 | 4.0 | 0.00 | 0.52 | 0.00 | 65 | 1018.0 |
| 20260901155507 | 80 | 111 | 0.0 | 3.0 | 0.00 | 0.52 | 0.00 | 66 | 1018.0 |
| 20260901155016 | 80 | 102 | 0.0 | 5.0 | 0.00 | 0.52 | 0.00 | 66 | 1018.0 |
| 20260901154535 | 80 | 102 | 1.0 | 5.0 | 0.00 | 0.52 | 0.00 | 67 | 1018.0 |
| 20260901154004 | 79 | 108 | 3.0 | 5.0 | 0.00 | 0.52 | 0.00 | 68 | 1018.0 |
| 20260901153519 | 79 | 139 | 0.0 | 3.0 | 0.00 | 0.52 | 0.00 | 68 | 1018.0 |
| 20260901153034 | 78 | 139 | 0.0 | 3.0 | 0.00 | 0.52 | 0.00 | 69 | 1018.1 |
| 20260901152515 | 78 | 138 | 0.0 | 3.0 | 0.00 | 0.52 | 0.00 | 70 | 1018.0 |
| 20260901152015 | 78 | 125 | 1.0 | 3.0 | 0.00 | 0.52 | 0.00 | 70 | 1018.0 |
| 20260901151540 | 78 | 119 | 0.0 | 4.0 | 0.00 | 0.52 | 0.00 | 71 | 1018.0 |
| 20260901151020 | 78 | 119 | 1.0 | 4.0 | 0.00 | 0.52 | 0.00 | 71 | 1018.0 |
| 20260901150519 | 77 | 360 | 0.0 | 5.0 | 0.00 | 0.52 | 0.00 | 72 | 1018.0 |
| 20260901150029 | 77 | 108 | 0.0 | 5.0 | 0.00 | 0.52 | 0.00 | 72 | 1018.0 |
| 20260901145519 | 77 | 93 | 0.0 | 4.0 | 0.00 | 0.52 | 0.00 | 73 | 1018.0 |
| 20260901145016 | 77 | 92 | 1.0 | 4.0 | 0.00 | 0.52 | 0.00 | 73 | 1018.0 |
| 20260901144522 | 76 | 97 | 1.0 | 5.0 | 0.00 | 0.52 | 0.00 | 74 | 1018.0 |
| 20260901144016 | 76 | 76 | 2.0 | 5.0 | 0.00 | 0.52 | 0.00 | 74 | 1018.1 |
| 20260901143517 | 76 | 88 | 2.0 | 5.0 | 0.00 | 0.52 | 0.00 | 75 | 1018.0 |
| 20260901143028 | 76 | 93 | 2.0 | 4.0 | 0.00 | 0.52 | 0.00 | 76 | 1018.0 |
| 20260901142519 | 75 | 96 | 1.0 | 5.0 | 0.00 | 0.52 | 0.00 | 78 | 1018.0 |
| 20260901142016 | 74 | 89 | 1.0 | 5.0 | 0.00 | 0.52 | 0.00 | 79 | 1017.9 |
| 20260901141524 | 74 | 91 | 0.0 | 4.0 | 0.00 | 0.52 | 0.00 | 80 | 1017.8 |
| 20260901141022 | 73 | 71 | 0.0 | 5.0 | 0.00 | 0.52 | 0.00 | 82 | 1017.7 |
| 20260901140516 | 73 | 57 | 1.0 | 6.0 | 0.00 | 0.52 | 0.00 | 84 | 1017.7 |
| 20260901140033 | 72 | 18 | 1.0 | 6.0 | 0.00 | 0.52 | 0.00 | 85 | 1017.6 |
| 20260901135515 | 72 | 53 | 1.0 | 6.0 | 0.00 | 0.52 | 0.00 | 85 | 1017.6 |
| 20260901135013 | 71 | 63 | 1.0 | 4.0 | 0.00 | 0.52 | 0.00 | 86 | 1017.5 |
| 20260901134532 | 71 | 62 | 0.0 | 4.0 | 0.00 | 0.52 | 0.00 | 86 | 1017.5 |
| 20260901134014 | 71 | 63 | 0.0 | 6.0 | 0.00 | 0.52 | 0.00 | 86 | 1017.6 |
| 20260901133519 | 71 | 65 | 1.0 | 6.0 | 0.00 | 0.52 | 0.00 | 86 | 1017.5 |
| 20260901133025 | 71 | 62 | 1.0 | 3.0 | 0.00 | 0.52 | 0.00 | 86 | 1017.5 |
| 20260901132517 | 71 | 81 | 0.0 | 4.0 | 0.00 | 0.52 | 0.00 | 86 | 1017.4 |
| 20260901132018 | 71 | 80 | 0.0 | 4.0 | 0.00 | 0.52 | 0.00 | 86 | 1017.4 |
| 20260901131525 | 71 | 71 | 0.0 | 0.0 | 0.00 | 0.52 | 0.00 | 86 | 1017.4 |
| 20260901131018 | 71 | 71 | 0.0 | 1.0 | 0.00 | 0.52 | 0.00 | 86 | 1017.3 |
| 20260901130519 | 71 | 71 | 0.0 | 1.0 | 0.00 | 0.52 | 0.00 | 85 | 1017.3 |
| 20260901130029 | 71 | 71 | 0.0 | 1.0 | 0.00 | 0.52 | 0.00 | 85 | 1017.2 |
| 20260901125515 | 71 | 71 | 0.0 | 1.0 | 0.00 | 0.52 | 0.00 | 85 | 1017.1 |
| 20260901125014 | 71 | 71 | 0.0 | 0.0 | 0.00 | 0.54 | 0.00 | 84 | 1017.0 |
| 20260901124535 | 71 | 71 | 0.0 | 1.0 | 0.00 | 0.54 | 0.00 | 84 | 1016.8 |
| 20260901124019 | 71 | 71 | 0.0 | 3.0 | 0.00 | 0.54 | 0.00 | 84 | 1016.6 |
| 20260901123515 | 71 | 71 | 0.0 | 3.0 | 0.00 | 0.54 | 0.00 | 84 | 1016.6 |
| 20260901123035 | 71 | 69 | 0.0 | 5.0 | 0.00 | 0.54 | 0.00 | 84 | 1016.7 |
| 20260901122508 | 71 | 70 | 0.0 | 5.0 | 0.00 | 0.54 | 0.00 | 84 | 1016.5 |
| 20260901122004 | 71 | 71 | 1.0 | 3.0 | 0.00 | 0.54 | 0.00 | 84 | 1016.5 |
| 20260901121533 | 71 | 71 | 0.0 | 3.0 | 0.00 | 0.54 | 0.00 | 84 | 1016.5 |
| 20260901121008 | 71 | 69 | 0.0 | 3.0 | 0.00 | 0.55 | 0.00 | 84 | 1016.6 |
| 20260901120516 | 71 | 65 | 0.0 | 3.0 | 0.00 | 0.57 | 0.00 | 84 | 1016.5 |
| 20260901120025 | 71 | 61 | 0.0 | 4.0 | 0.00 | 0.57 | 0.00 | 84 | 1016.5 |
| 20260901115507 | 71 | 61 | 0.0 | 4.0 | 0.00 | 0.58 | 0.00 | 84 | 1016.4 |
| 20260901115015 | 71 | 61 | 0.0 | 3.0 | 0.00 | 0.58 | 0.00 | 84 | 1016.4 |
| 20260901114527 | 71 | 62 | 0.0 | 2.0 | 0.00 | 0.60 | 0.00 | 84 | 1016.4 |
| 20260901114004 | 71 | 63 | 0.0 | 1.0 | 0.00 | 0.61 | 0.00 | 84 | 1016.4 |
| 20260901113516 | 71 | 63 | 0.0 | 0.0 | 0.00 | 0.64 | 0.00 | 84 | 1016.4 |
| 20260901113026 | 71 | 63 | 0.0 | 2.0 | 0.00 | 0.65 | 0.00 | 84 | 1016.5 |
| 20260901112507 | 71 | 63 | 0.0 | 2.0 | 0.00 | 0.66 | 0.00 | 84 | 1016.5 |
| 20260901112016 | 71 | 63 | 0.0 | 2.0 | 0.00 | 0.67 | 0.00 | 83 | 1016.5 |
| 20260901111526 | 72 | 63 | 0.0 | 3.0 | 0.00 | 0.67 | 0.00 | 83 | 1016.5 |
| 20260901111011 | 72 | 63 | 0.0 | 4.0 | 0.00 | 0.67 | 0.00 | 83 | 1016.5 |
| 20260901110518 | 72 | 63 | 0.0 | 4.0 | 0.00 | 0.67 | 0.00 | 83 | 1016.4 |
| 20260901110033 | 72 | 63 | 0.0 | 3.0 | 0.00 | 0.67 | 0.00 | 83 | 1016.5 |
| 20260901105505 | 72 | 58 | 0.0 | 3.0 | 0.00 | 0.67 | 0.00 | 82 | 1016.5 |
| 20260901105012 | 72 | 58 | 0.0 | 2.0 | 0.00 | 0.67 | 0.00 | 82 | 1016.5 |
| 20260901104528 | 72 | 57 | 0.0 | 0.0 | 0.00 | 0.67 | 0.00 | 82 | 1016.4 |
| 20260901104008 | 72 | 56 | 0.0 | 0.0 | 0.00 | 0.67 | 0.00 | 82 | 1016.4 |
| 20260901103518 | 72 | 56 | 0.0 | 0.0 | 0.00 | 0.67 | 0.00 | 82 | 1016.5 |
| 20260901103028 | 72 | 55 | 0.0 | 1.0 | 0.00 | 0.67 | 0.00 | 82 | 1016.4 |
| 20260901102509 | 72 | 53 | 0.0 | 3.0 | 0.00 | 0.67 | 0.00 | 81 | 1016.4 |
| 20260901102014 | 72 | 53 | 0.0 | 3.0 | 0.00 | 0.67 | 0.00 | 81 | 1016.3 |
| 20260901101528 | 72 | 53 | 0.0 | 2.0 | 0.00 | 0.67 | 0.00 | 81 | 1016.3 |
| 20260901101010 | 72 | 53 | 0.0 | 5.0 | 0.00 | 0.67 | 0.00 | 81 | 1016.3 |
| 20260901100516 | 72 | 53 | 0.0 | 5.0 | 0.00 | 0.67 | 0.00 | 81 | 1016.3 |
| 20260901100023 | 72 | 53 | 1.0 | 5.0 | 0.00 | 0.67 | 0.00 | 81 | 1016.2 |
| 20260901095503 | 72 | 56 | 0.0 | 1.0 | 0.00 | 0.67 | 0.00 | 81 | 1016.2 |
| 20260901095016 | 72 | 56 | 0.0 | 3.0 | 0.00 | 0.67 | 0.00 | 81 | 1016.2 |
| 20260901094526 | 72 | 56 | 0.0 | 4.0 | 0.00 | 0.67 | 0.00 | 81 | 1016.2 |
| 20260901094006 | 72 | 55 | 0.0 | 4.0 | 0.00 | 0.67 | 0.00 | 81 | 1016.2 |
| 20260901093513 | 72 | 55 | 0.0 | 3.0 | 0.00 | 0.67 | 0.00 | 81 | 1016.2 |
| 20260901093025 | 72 | 54 | 0.0 | 3.0 | 0.00 | 0.67 | 0.00 | 81 | 1016.2 |
| 20260901092506 | 72 | 53 | 0.0 | 4.0 | 0.00 | 0.67 | 0.00 | 81 | 1016.2 |
| 20260901092017 | 72 | 53 | 0.0 | 4.0 | 0.00 | 0.67 | 0.00 | 81 | 1016.1 |
| 20260901091527 | 72 | 53 | 1.0 | 4.0 | 0.00 | 0.67 | 0.00 | 82 | 1016.2 |
| 20260901091006 | 73 | 52 | 0.0 | 4.0 | 0.00 | 0.67 | 0.00 | 81 | 1016.2 |
| 20260901090522 | 73 | 54 | 0.0 | 4.0 | 0.00 | 0.67 | 0.00 | 81 | 1016.3 |
| 20260901090026 | 73 | 54 | 1.0 | 4.0 | 0.00 | 0.67 | 0.00 | 81 | 1016.3 |
| 20260901085503 | 73 | 58 | 1.0 | 5.0 | 0.00 | 0.67 | 0.00 | 82 | 1016.3 |
| 20260901085014 | 73 | 63 | 0.0 | 5.0 | 0.00 | 0.67 | 0.00 | 82 | 1016.3 |
| 20260901084524 | 72 | 65 | 2.0 | 4.0 | 0.00 | 0.67 | 0.00 | 82 | 1016.2 |
| 20260901084005 | 73 | 73 | 1.0 | 4.0 | 0.00 | 0.67 | 0.00 | 82 | 1016.2 |
| 20260901083517 | 73 | 79 | 1.0 | 3.0 | 0.00 | 0.67 | 0.00 | 82 | 1016.3 |
| 20260901083027 | 73 | 80 | 0.0 | 4.0 | 0.00 | 0.67 | 0.00 | 82 | 1016.4 |
| 20260901082506 | 73 | 81 | 0.0 | 4.0 | 0.00 | 0.67 | 0.00 | 82 | 1016.4 |
| 20260901082015 | 73 | 82 | 1.0 | 4.0 | 0.00 | 0.67 | 0.00 | 82 | 1016.3 |
| 20260901081524 | 73 | 84 | 0.0 | 3.0 | 0.00 | 0.67 | 0.00 | 82 | 1016.3 |
| 20260901081006 | 73 | 85 | 0.0 | 3.0 | 0.00 | 0.67 | 0.00 | 82 | 1016.3 |
| 20260901080515 | 73 | 88 | 1.0 | 3.0 | 0.00 | 0.67 | 0.00 | 82 | 1016.3 |
| 20260901080023 | 73 | 89 | 0.0 | 2.0 | 0.00 | 0.67 | 0.00 | 82 | 1016.2 |
| 20260901075504 | 73 | 90 | 0.0 | 1.0 | 0.00 | 0.67 | 0.00 | 82 | 1016.4 |
| 20260901075016 | 73 | 90 | 0.0 | 2.0 | 0.00 | 0.67 | 0.00 | 81 | 1016.4 |
| 20260901074526 | 73 | 90 | 0.0 | 2.0 | 0.00 | 0.67 | 0.00 | 81 | 1016.5 |
| 20260901074009 | 73 | 90 | 0.0 | 1.0 | 0.00 | 0.67 | 0.00 | 81 | 1016.5 |
| 20260901073514 | 74 | 90 | 0.0 | 1.0 | 0.00 | 0.67 | 0.00 | 80 | 1016.5 |
| 20260901073027 | 74 | 90 | 0.0 | 0.0 | 0.00 | 0.67 | 0.00 | 79 | 1016.5 |
| 20260901072505 | 74 | 91 | 0.0 | 0.0 | 0.00 | 0.67 | 0.00 | 79 | 1016.5 |
| 20260901072019 | 74 | 91 | 0.0 | 1.0 | 0.00 | 0.67 | 0.00 | 78 | 1016.5 |
| 20260901071527 | 74 | 91 | 0.0 | 1.0 | 0.00 | 0.67 | 0.00 | 78 | 1016.4 |
| 20260901071005 | 75 | 91 | 0.0 | 2.0 | 0.00 | 0.67 | 0.00 | 77 | 1016.5 |
| 20260901070515 | 75 | 91 | 0.0 | 2.0 | 0.00 | 0.67 | 0.00 | 76 | 1016.4 |
| 20260901070024 | 75 | 91 | 0.0 | 2.0 | 0.00 | 0.67 | 0.00 | 76 | 1016.5 |
| 20260901065514 | 75 | 92 | 0.0 | 2.0 | 0.00 | 0.67 | 0.67 | 76 | 1016.4 |
| 20260901065019 | 75 | 92 | 0.0 | 2.0 | 0.00 | 0.67 | 0.67 | 76 | 1016.5 |
| 20260901064535 | 75 | 92 | 0.0 | 2.0 | 0.00 | 0.67 | 0.67 | 76 | 1016.5 |
| 20260901064019 | 75 | 91 | 0.0 | 1.0 | 0.00 | 0.67 | 0.67 | 76 | 1016.5 |
| 20260901063516 | 75 | 91 | 0.0 | 0.0 | 0.00 | 0.67 | 0.67 | 76 | 1016.5 |
| 20260901063031 | 75 | 91 | 0.0 | 0.0 | 0.00 | 0.67 | 0.67 | 75 | 1016.6 |
| 20260901062519 | 75 | 91 | 0.0 | 0.0 | 0.00 | 0.67 | 0.67 | 75 | 1016.7 |
| 20260901062013 | 75 | 91 | 0.0 | 0.0 | 0.00 | 0.67 | 0.67 | 75 | 1016.7 |
| 20260901061524 | 75 | 91 | 0.0 | 0.0 | 0.00 | 0.67 | 0.67 | 75 | 1016.8 |
| 20260901061018 | 75 | 91 | 0.0 | 0.0 | 0.00 | 0.67 | 0.67 | 74 | 1016.8 |
| 20260901060513 | 75 | 91 | 0.0 | 1.0 | 0.00 | 0.67 | 0.67 | 75 | 1016.7 |
| 20260901060024 | 75 | 91 | 0.0 | 2.0 | 0.00 | 0.67 | 0.67 | 75 | 1016.6 |
| 20260901055516 | 75 | 91 | 0.0 | 2.0 | 0.00 | 0.67 | 0.67 | 75 | 1016.6 |
| 20260901055014 | 76 | 91 | 0.0 | 1.0 | 0.00 | 0.67 | 0.67 | 75 | 1016.7 |
| 20260901054525 | 76 | 91 | 0.0 | 1.0 | 0.00 | 0.67 | 0.67 | 75 | 1016.7 |
| 20260901054021 | 76 | 91 | 0.0 | 1.0 | 0.00 | 0.67 | 0.67 | 74 | 1016.6 |
| 20260901053516 | 76 | 91 | 0.0 | 3.0 | 0.00 | 0.67 | 0.67 | 73 | 1016.5 |
| 20260901053024 | 76 | 91 | 0.0 | 3.0 | 0.00 | 0.67 | 0.67 | 73 | 1016.4 |
| 20260901052518 | 76 | 90 | 0.0 | 3.0 | 0.00 | 0.67 | 0.67 | 73 | 1016.4 |
| 20260901052013 | 76 | 89 | 0.0 | 3.0 | 0.00 | 0.67 | 0.67 | 72 | 1016.4 |
| 20260901051528 | 76 | 88 | 0.0 | 4.0 | 0.00 | 0.67 | 0.67 | 72 | 1016.4 |
| 20260901051014 | 76 | 85 | 1.0 | 4.0 | 0.00 | 0.67 | 0.67 | 72 | 1016.4 |
| 20260901050517 | 76 | 71 | 1.0 | 4.0 | 0.00 | 0.67 | 0.67 | 72 | 1016.5 |
| 20260901050023 | 77 | 67 | 0.0 | 6.0 | 0.00 | 0.67 | 0.67 | 71 | 1016.6 |
| 20260901045522 | 77 | 58 | 2.0 | 8.0 | 0.00 | 0.67 | 0.67 | 71 | 1016.6 |
| 20260901045014 | 76 | 55 | 3.0 | 8.0 | 0.00 | 0.67 | 0.67 | 72 | 1016.7 |
| 20260901044523 | 76 | 44 | 3.0 | 6.0 | 0.00 | 0.67 | 0.67 | 72 | 1016.8 |
| 20260901044019 | 76 | 63 | 2.0 | 6.0 | 0.00 | 0.67 | 0.67 | 72 | 1016.7 |
| 20260901043517 | 76 | 65 | 2.0 | 6.0 | 0.00 | 0.67 | 0.67 | 72 | 1016.7 |
| 20260901043026 | 76 | 63 | 1.0 | 6.0 | 0.00 | 0.67 | 0.67 | 72 | 1016.7 |
| 20260901042520 | 76 | 41 | 1.0 | 6.0 | 0.00 | 0.67 | 0.67 | 72 | 1016.6 |
| 20260901042016 | 76 | 77 | 1.0 | 5.0 | 0.00 | 0.67 | 0.67 | 72 | 1016.5 |
| 20260901041527 | 76 | 85 | 0.0 | 6.0 | 0.00 | 0.67 | 0.67 | 72 | 1016.4 |
| 20260901041017 | 76 | 84 | 0.0 | 6.0 | 0.00 | 0.67 | 0.67 | 72 | 1016.5 |
| 20260901040512 | 76 | 65 | 1.0 | 4.0 | 0.00 | 0.67 | 0.67 | 72 | 1016.5 |
| 20260901040035 | 76 | 84 | 0.0 | 4.0 | 0.00 | 0.67 | 0.67 | 71 | 1016.5 |
| 20260901035517 | 76 | 82 | 0.0 | 4.0 | 0.00 | 0.67 | 0.67 | 71 | 1016.5 |
| 20260901035016 | 76 | 67 | 0.0 | 3.0 | 0.00 | 0.67 | 0.67 | 71 | 1016.4 |
| 20260901034523 | 76 | 63 | 0.0 | 2.0 | 0.00 | 0.67 | 0.67 | 71 | 1016.3 |
| 20260901034018 | 76 | 62 | 0.0 | 4.0 | 0.00 | 0.67 | 0.67 | 71 | 1016.3 |
| 20260901033513 | 76 | 60 | 0.0 | 4.0 | 0.00 | 0.67 | 0.67 | 71 | 1016.3 |
| 20260901033032 | 76 | 32 | 0.0 | 3.0 | 0.00 | 0.67 | 0.67 | 71 | 1016.3 |
| 20260901032506 | 76 | 15 | 0.0 | 4.0 | 0.00 | 0.67 | 0.67 | 71 | 1016.2 |